THOR ABLESTAR DEB, 230

Orbit data source: Space-Track

THOR ABLESTAR DEB, 230 is space debris in LEO originally from a launch on Thu, 29 Jun 1961 UTC launched from the Air Force Eastern Test Range (AFETR). Debris objects in space refer to the collection of defunct objects orbiting the Earth. Examples of debris include non-operational satellites, rocket bodies, and fragments generated from explosions, collisions, or faulty payload assembly.

Loading next visibility...
Identifier
230, 1961-015BN
Orbit
LEO
Country
Flag of USUS
Related business
Manufacturer
Unknown
Mission
Spacecraft
Bus & Motor
Unknown
Mass
Unknown
Launch date (UTC)
1961-06-29 (64 years ago)
Launch vehicle
Unknown
Launch site
Air Force Eastern Test Range (AFETR)
Object type
Payload
Rocket body
Debris
Shape & HBR
Unknown shape, 0.2 m
Radar Cross Section
Small (<0.1 m²)

Expand to show TLE details & history
Last TLE update: 16 hours ago

TLE from 16 hours ago
0 THOR ABLESTAR DEB
1 00230U 61015BN  25310.14172450  .00000136  00000-0  14762-3 0  9996
2 00230  66.8831 237.3014 0096227 330.2711  29.2922 13.96736275274606
Epoch: 2025-11-06T03:24Z
TLE epoch observation values (Epoch: 2025-11-06T03:24:04.996Z)
Latitude
-0.0001°
Longitude
140.67624°
Altitude
846.241 km
Speed
7.461 km/s
True Right ascension
15h 49m 12s
True Declination
0° 00' 00"
Sunlit
Object was in daylight at epoch
Visualization orbit readout
Latitude
Unknown
Longitude
Unknown
Altitude
Unknown
Speed
Unknown
Apparent Right ascension
Unknown
Apparent Declination
Unknown
Sunlit
N/A
Visualization observer readout
Local Sidereal Time
15:38:42
Azimuth
Unknown
Elevation
Unknown
Doppler factor
Unknown
Orbital elements
Apogee altitude
973.567 km
Perigee altitude
833.429 km
Semi-major axis
7,281.635 km
Eccentricity
0.00962
Inclination
66.8831°
RAAN
237.3014°
Arg. of periapsis
330.2711°
True anomaly
29.83741°
Mean anomaly
29.2922°
Eccentric anomaly
29.56423°
Mean motion
3.49301 °/min
Orbital period
103.06 mins
BSTAR
0.00014762
Loading maneuver chart data...
Computing Atmospheric mass density...

Documentation

Showing up to 5 results
|